UAL145 KMCO-KMIA

Flight info

Callsign UAL145
Flight time 0h 44m
Altitude 23000
Route DDANY3 DDANY CSTAL2
Aircraft B738/M-SDE2E3FGHIRWXY/LB1

Departure

Time 2026-05-04 17:08
Airport Orlando International Airport (KMCO)

Arrival

Time 2026-05-04 17:52
Airport Miami International Airport (KMIA)
Time Latitude Longitude Altitude Speed Heading
2026-05-04 16:26 28.43626 -81.31556 101 ft 0 kts 148°
2026-05-04 16:53 28.43662 -81.31574 99 ft 4 kts 168°
2026-05-04 16:54 28.43688 -81.31576 100 ft 4 kts 197°
2026-05-04 16:55 28.43707 -81.31559 99 ft 6 kts 251°
2026-05-04 17:00 28.43627 -81.31635 101 ft 11 kts 193°
2026-05-04 17:00 28.43489 -81.31791 102 ft 10 kts 237°
2026-05-04 17:01 28.43409 -81.31919 101 ft 10 kts 251°
2026-05-04 17:01 28.43315 -81.31997 100 ft 10 kts 178°
2026-05-04 17:02 28.43173 -81.31995 99 ft 11 kts 179°
2026-05-04 17:02 28.42913 -81.31993 102 ft 28 kts 179°
2026-05-04 17:03 28.42706 -81.31992 107 ft 31 kts 180°
2026-05-04 17:03 28.42543 -81.31985 108 ft 0 kts 176°
2026-05-04 17:03 28.42497 -81.31983 108 ft 10 kts 180°
2026-05-04 17:04 28.42272 -81.31985 108 ft 22 kts 178°
2026-05-04 17:04 28.41873 -81.31979 102 ft 35 kts 179°
2026-05-04 17:05 28.41543 -81.32044 99 ft 16 kts 265°
2026-05-04 17:05 28.41635 -81.32196 100 ft 0 kts 359°
2026-05-04 17:07 28.41657 -81.32196 99 ft 24 kts 359°
2026-05-04 17:07 28.42424 -81.32205 110 ft 135 kts 359°
2026-05-04 17:07 28.43578 -81.32233 272 ft 189 kts 359°
2026-05-04 17:08 28.44979 -81.32257 952 ft 209 kts
2026-05-04 17:08 28.47734 -81.31913 3037 ft 192 kts 29°
2026-05-04 17:08 28.48796 -81.30943 3535 ft 210 kts 55°
2026-05-04 17:09 28.49324 -81.29263 3610 ft 251 kts 90°
2026-05-04 17:09 28.49240 -81.27260 4495 ft 255 kts 88°
2026-05-04 17:09 28.49479 -81.25232 4865 ft 258 kts 77°
2026-05-04 17:10 28.50514 -81.21199 4989 ft 269 kts 78°
2026-05-04 17:10 28.50812 -81.15001 5164 ft 264 kts 105°
2026-05-04 17:11 28.50329 -81.12965 5855 ft 271 kts 104°
2026-05-04 17:11 28.49853 -81.10884 6582 ft 273 kts 104°
2026-05-04 17:11 28.48889 -81.06643 6969 ft 279 kts 105°
2026-05-04 17:12 28.48109 -81.04648 6989 ft 280 kts 130°
2026-05-04 17:12 28.45156 -81.01755 7009 ft 282 kts 142°
2026-05-04 17:13 28.40472 -80.97557 8426 ft 294 kts 144°
2026-05-04 17:14 28.35577 -80.93122 10485 ft 321 kts 144°
2026-05-04 17:14 28.33763 -80.91476 10664 ft 346 kts 144°
2026-05-04 17:14 28.29857 -80.87925 11708 ft 366 kts 144°
2026-05-04 17:15 28.27994 -80.85927 12437 ft 374 kts 128°
2026-05-04 17:15 28.25871 -80.80503 14030 ft 378 kts 112°
2026-05-04 17:16 28.23879 -80.74850 15244 ft 394 kts 113°
2026-05-04 17:16 28.19447 -80.67103 16952 ft 401 kts 152°
2026-05-04 17:17 28.16921 -80.65860 17538 ft 396 kts 168°
2026-05-04 17:17 28.08803 -80.63501 19130 ft 407 kts 170°
2026-05-04 17:18 28.06045 -80.62705 19648 ft 410 kts 170°
2026-05-04 17:18 28.00486 -80.61067 20657 ft 415 kts 171°
2026-05-04 17:19 27.94848 -80.59383 21626 ft 422 kts 171°
2026-05-04 17:19 27.89131 -80.57672 22582 ft 428 kts 171°
2026-05-04 17:20 27.83348 -80.55941 22962 ft 430 kts 171°
2026-05-04 17:20 27.77557 -80.54211 22988 ft 431 kts 171°
2026-05-04 17:20 27.74660 -80.53346 22984 ft 431 kts 171°
2026-05-04 17:21 27.68820 -80.51605 23792 ft 435 kts 171°
2026-05-04 17:21 27.62974 -80.49725 24549 ft 442 kts 168°
2026-05-04 17:22 27.60048 -80.48576 24872 ft 447 kts 166°
2026-05-04 17:22 27.57116 -80.47372 25115 ft 450 kts 166°
2026-05-04 17:23 27.48335 -80.43787 25099 ft 447 kts 167°
2026-05-04 17:23 27.45444 -80.42636 25101 ft 447 kts 167°
2026-05-04 17:23 27.39575 -80.40316 25088 ft 448 kts 167°
2026-05-04 17:24 27.36634 -80.39156 25083 ft 448 kts 167°
2026-05-04 17:24 27.27811 -80.35674 25082 ft 448 kts 167°
2026-05-04 17:25 27.24873 -80.34516 25081 ft 447 kts 167°
2026-05-04 17:25 27.19010 -80.32210 25077 ft 442 kts 167°
2026-05-04 17:26 27.13379 -80.30012 24963 ft 418 kts 168°
2026-05-04 17:26 27.05466 -80.26940 24927 ft 382 kts 168°
2026-05-04 17:27 27.00508 -80.25025 24290 ft 377 kts 168°
2026-05-04 17:27 26.95347 -80.23046 22471 ft 402 kts 167°
2026-05-04 17:28 26.90102 -80.21007 21666 ft 394 kts 167°
2026-05-04 17:29 26.82403 -80.18073 20393 ft 387 kts 168°
2026-05-04 17:29 26.74818 -80.15276 19242 ft 378 kts 168°
2026-05-04 17:30 26.67378 -80.12822 18049 ft 368 kts 174°
2026-05-04 17:31 26.62408 -80.11543 17252 ft 364 kts 173°
2026-05-04 17:31 26.55075 -80.09651 16122 ft 357 kts 174°
2026-05-04 17:32 26.50248 -80.08457 15371 ft 352 kts 174°
2026-05-04 17:33 26.43122 -80.06760 14268 ft 345 kts 175°
2026-05-04 17:33 26.40769 -80.06273 13900 ft 343 kts 176°
2026-05-04 17:34 26.33944 -80.04520 13333 ft 321 kts 172°
2026-05-04 17:34 26.31810 -80.03917 13176 ft 312 kts 172°
2026-05-04 17:35 26.25564 -80.02284 12265 ft 302 kts 182°
2026-05-04 17:35 26.21574 -80.03007 11905 ft 287 kts 198°
2026-05-04 17:35 26.19665 -80.03461 11782 ft 285 kts 198°
2026-05-04 17:36 26.17708 -80.03923 11678 ft 288 kts 198°
2026-05-04 17:36 26.15727 -80.04386 11562 ft 293 kts 197°
2026-05-04 17:36 26.13733 -80.04846 11408 ft 292 kts 197°
2026-05-04 17:36 26.11747 -80.05300 11282 ft 290 kts 197°
2026-05-04 17:37 26.09772 -80.05750 11162 ft 289 kts 197°
2026-05-04 17:37 26.07806 -80.06199 11043 ft 288 kts 197°
2026-05-04 17:37 26.05841 -80.06665 10845 ft 290 kts 198°
2026-05-04 17:37 26.03865 -80.07180 10614 ft 293 kts 198°
2026-05-04 17:38 26.01877 -80.07705 10373 ft 295 kts 198°
2026-05-04 17:38 25.99891 -80.08226 10140 ft 292 kts 198°
2026-05-04 17:38 25.97923 -80.08738 9951 ft 286 kts 198°
2026-05-04 17:38 25.96026 -80.09229 9772 ft 279 kts 198°
2026-05-04 17:39 25.92312 -80.10427 9135 ft 271 kts 217°
2026-05-04 17:39 25.90922 -80.11762 8931 ft 261 kts 230°
2026-05-04 17:39 25.89709 -80.13245 8717 ft 258 kts 231°
2026-05-04 17:40 25.88563 -80.14768 8490 ft 257 kts 240°
2026-05-04 17:40 25.87938 -80.16595 8292 ft 252 kts 261°
2026-05-04 17:40 25.87782 -80.18502 8083 ft 252 kts 268°
2026-05-04 17:40 25.87754 -80.20485 7788 ft 256 kts 269°
2026-05-04 17:41 25.87724 -80.22472 7475 ft 260 kts 269°
2026-05-04 17:41 25.87676 -80.24465 7153 ft 263 kts 269°
2026-05-04 17:41 25.87618 -80.26502 6825 ft 264 kts 269°
2026-05-04 17:41 25.87599 -80.28515 6495 ft 265 kts 277°
2026-05-04 17:42 25.88200 -80.30471 6155 ft 266 kts 297°
2026-05-04 17:42 25.89096 -80.32285 5805 ft 272 kts 298°
2026-05-04 17:42 25.90007 -80.34120 5424 ft 278 kts 299°
2026-05-04 17:42 25.90938 -80.36006 5076 ft 279 kts 299°
2026-05-04 17:43 25.91864 -80.37901 4728 ft 280 kts 299°
2026-05-04 17:43 25.92794 -80.39808 4369 ft 281 kts 300°
2026-05-04 17:43 25.93615 -80.41770 4042 ft 282 kts 285°
2026-05-04 17:43 25.93784 -80.43890 4005 ft 268 kts 270°
2026-05-04 17:44 25.93736 -80.45884 3981 ft 249 kts 270°
2026-05-04 17:44 25.93691 -80.47732 3949 ft 233 kts 272°
2026-05-04 17:44 25.93669 -80.49525 3730 ft 227 kts 273°
2026-05-04 17:44 25.93670 -80.51241 3640 ft 218 kts 272°
2026-05-04 17:45 25.93660 -80.52887 3576 ft 210 kts 271°
2026-05-04 17:45 25.93524 -80.54483 3531 ft 210 kts 252°
2026-05-04 17:45 25.92715 -80.55738 3585 ft 216 kts 218°
2026-05-04 17:45 25.91312 -80.56401 3546 ft 222 kts 194°
2026-05-04 17:46 25.89773 -80.56664 3402 ft 228 kts 177°
2026-05-04 17:46 25.88276 -80.56159 3189 ft 226 kts 146°
2026-05-04 17:46 25.87201 -80.54953 2992 ft 218 kts 116°
2026-05-04 17:46 25.86798 -80.53413 3097 ft 203 kts 93°
2026-05-04 17:47 25.86736 -80.51829 3222 ft 208 kts 85°
2026-05-04 17:47 25.86999 -80.50224 3076 ft 213 kts 67°
2026-05-04 17:47 25.87480 -80.48695 2999 ft 207 kts 69°
2026-05-04 17:47 25.87921 -80.47216 2998 ft 203 kts 74°
2026-05-04 17:48 25.87760 -80.45660 3008 ft 212 kts 113°
2026-05-04 17:48 25.87016 -80.44224 2765 ft 214 kts 114°
2026-05-04 17:48 25.86323 -80.42805 2493 ft 206 kts 114°
2026-05-04 17:48 25.85637 -80.41434 2265 ft 198 kts 115°
2026-05-04 17:49 25.84973 -80.40131 1987 ft 190 kts 115°
2026-05-04 17:49 25.84345 -80.38905 1769 ft 173 kts 114°
2026-05-04 17:49 25.83965 -80.38160 1607 ft 163 kts 115°
2026-05-04 17:49 25.83433 -80.37118 1394 ft 149 kts 114°
2026-05-04 17:50 25.82937 -80.36140 1212 ft 146 kts 114°
2026-05-04 17:50 25.82426 -80.35136 1028 ft 152 kts 114°
2026-05-04 17:50 25.81902 -80.34111 830 ft 152 kts 116°
2026-05-04 17:50 25.81387 -80.33101 632 ft 148 kts 115°
2026-05-04 17:51 25.80891 -80.32098 453 ft 150 kts 115°
2026-05-04 17:51 25.80381 -80.31084 241 ft 148 kts 115°
2026-05-04 17:51 25.79878 -80.30126 38 ft 137 kts 116°
2026-05-04 17:51 25.79439 -80.29270 19 ft 114 kts 118°
2026-05-04 17:52 25.79131 -80.28664 18 ft 67 kts 119°
2026-05-04 17:52 25.79018 -80.28452 21 ft 24 kts 131°
2026-05-04 17:52 25.78971 -80.28317 22 ft 12 kts 91°
2026-05-04 17:52 25.78991 -80.28221 23 ft 17 kts 85°
2026-05-04 17:53 25.79014 -80.28168 26 ft 7 kts 48°
2026-05-04 17:53 25.79061 -80.28121 25 ft 13 kts 43°
2026-05-04 17:53 25.79134 -80.28128 26 ft 0 kts 345°